880GM KTYS-KCHA

Flight info

Callsign 880GM
Flight time 0h 34m
Altitude 5000
Route KTYS HETIP JOXAT ZUBAN KCHA
Aircraft SR20/L-S/N

Departure

Time 2026-04-25 17:31
Airport McGhee Tyson Airport (KTYS)

Arrival

Time 2026-04-25 18:05
Airport Chattanooga Metropolitan Airport (Lovell Field) (KCHA)
Time Latitude Longitude Altitude Speed Heading
2026-04-25 17:10 35.81115 -83.98792 957 ft 0 kts 47°
2026-04-25 17:23 35.81121 -83.98785 957 ft 5 kts 53°
2026-04-25 17:23 35.81170 -83.98765 956 ft 12 kts 340°
2026-04-25 17:24 35.81228 -83.98747 956 ft 11 kts 40°
2026-04-25 17:24 35.81281 -83.98682 957 ft 11 kts 43°
2026-04-25 17:24 35.81325 -83.98639 957 ft 3 kts 34°
2026-04-25 17:24 35.81363 -83.98585 956 ft 14 kts 47°
2026-04-25 17:25 35.81451 -83.98476 953 ft 20 kts 49°
2026-04-25 17:25 35.81540 -83.98376 951 ft 11 kts 51°
2026-04-25 17:25 35.81560 -83.98347 950 ft 0 kts 24°
2026-04-25 17:26 35.81561 -83.98347 950 ft 0 kts 33°
2026-04-25 17:27 35.81561 -83.98346 950 ft 0 kts 34°
2026-04-25 17:28 35.81561 -83.98345 950 ft 0 kts 45°
2026-04-25 17:29 35.81565 -83.98340 950 ft 1 kts 28°
2026-04-25 17:29 35.81584 -83.98330 950 ft 5 kts
2026-04-25 17:30 35.81621 -83.98346 952 ft 5 kts 320°
2026-04-25 17:30 35.81639 -83.98381 953 ft 5 kts 297°
2026-04-25 17:30 35.81633 -83.98413 954 ft 7 kts 218°
2026-04-25 17:30 35.81425 -83.98676 961 ft 73 kts 224°
2026-04-25 17:31 35.81000 -83.99215 1066 ft 99 kts 227°
2026-04-25 17:31 35.80508 -83.99822 1366 ft 97 kts 214°
2026-04-25 17:31 35.79873 -84.00146 1591 ft 105 kts 203°
2026-04-25 17:31 35.79188 -84.00508 1874 ft 103 kts 197°
2026-04-25 17:32 35.78530 -84.00876 2173 ft 100 kts 219°
2026-04-25 17:32 35.78039 -84.01437 2349 ft 113 kts 218°
2026-04-25 17:32 35.77370 -84.02023 2558 ft 115 kts 214°
2026-04-25 17:32 35.76804 -84.02672 2831 ft 113 kts 228°
2026-04-25 17:33 35.76318 -84.03498 2914 ft 126 kts 241°
2026-04-25 17:33 35.75953 -84.04429 3223 ft 118 kts 239°
2026-04-25 17:33 35.75484 -84.05286 3376 ft 124 kts 232°
2026-04-25 17:33 35.74951 -84.06151 3534 ft 127 kts 232°
2026-04-25 17:34 35.74431 -84.07015 3756 ft 125 kts 235°
2026-04-25 17:34 35.73974 -84.07872 4038 ft 119 kts 236°
2026-04-25 17:34 35.73487 -84.08715 4238 ft 120 kts 232°
2026-04-25 17:34 35.72968 -84.09531 4408 ft 124 kts 232°
2026-04-25 17:35 35.72435 -84.10354 4577 ft 127 kts 231°
2026-04-25 17:35 35.71894 -84.11278 4650 ft 134 kts 239°
2026-04-25 17:35 35.71486 -84.12246 4893 ft 129 kts 246°
2026-04-25 17:35 35.71149 -84.13319 4883 ft 142 kts 250°
2026-04-25 17:36 35.70754 -84.14431 4989 ft 142 kts 243°
2026-04-25 17:36 35.70287 -84.15514 5031 ft 147 kts 242°
2026-04-25 17:36 35.69811 -84.16648 5023 ft 153 kts 244°
2026-04-25 17:36 35.69335 -84.17818 5050 ft 154 kts 240°
2026-04-25 17:37 35.68685 -84.18887 4999 ft 159 kts 230°
2026-04-25 17:37 35.68007 -84.19953 5031 ft 157 kts 234°
2026-04-25 17:37 35.67395 -84.21086 4978 ft 161 kts 237°
2026-04-25 17:37 35.66741 -84.22203 4970 ft 161 kts 231°
2026-04-25 17:38 35.66024 -84.23221 5030 ft 157 kts 231°
2026-04-25 17:38 35.65800 -84.23578 5055 ft 156 kts 233°
2026-04-25 17:38 35.64663 -84.25387 4930 ft 163 kts 233°
2026-04-25 17:38 35.63990 -84.26492 4938 ft 161 kts 234°
2026-04-25 17:39 35.63359 -84.27609 5047 ft 153 kts 233°
2026-04-25 17:39 35.62701 -84.28668 4963 ft 161 kts 233°
2026-04-25 17:39 35.62044 -84.29773 4951 ft 161 kts 233°
2026-04-25 17:39 35.61348 -84.30854 4959 ft 159 kts 230°
2026-04-25 17:40 35.60636 -84.31893 4958 ft 159 kts 231°
2026-04-25 17:40 35.59943 -84.32940 4939 ft 158 kts 232°
2026-04-25 17:40 35.59269 -84.33997 4921 ft 157 kts 231°
2026-04-25 17:40 35.58555 -84.35014 4897 ft 157 kts 229°
2026-04-25 17:41 35.57863 -84.36037 4897 ft 155 kts 232°
2026-04-25 17:41 35.57195 -84.37074 4908 ft 153 kts 232°
2026-04-25 17:41 35.56567 -84.38063 5061 ft 144 kts 231°
2026-04-25 17:41 35.55905 -84.39017 5025 ft 149 kts 230°
2026-04-25 17:42 35.55255 -84.39993 5062 ft 149 kts 232°
2026-04-25 17:42 35.54607 -84.41006 5037 ft 151 kts 231°
2026-04-25 17:42 35.53931 -84.41977 5098 ft 149 kts 229°
2026-04-25 17:42 35.53226 -84.42934 5039 ft 154 kts 227°
2026-04-25 17:43 35.52495 -84.43874 5079 ft 151 kts 225°
2026-04-25 17:43 35.51770 -84.44816 5016 ft 155 kts 231°
2026-04-25 17:43 35.51146 -84.45900 4900 ft 156 kts 237°
2026-04-25 17:43 35.50571 -84.46994 4892 ft 151 kts 238°
2026-04-25 17:44 35.50022 -84.48105 4785 ft 153 kts 239°
2026-04-25 17:44 35.49421 -84.49161 4813 ft 147 kts 232°
2026-04-25 17:44 35.48793 -84.50147 4727 ft 150 kts 232°
2026-04-25 17:44 35.48146 -84.51168 4631 ft 150 kts 233°
2026-04-25 17:45 35.47530 -84.52149 4608 ft 145 kts 233°
2026-04-25 17:45 35.47322 -84.52476 4543 ft 147 kts 232°
2026-04-25 17:45 35.46248 -84.54130 4350 ft 146 kts 234°
2026-04-25 17:45 35.45632 -84.55098 4255 ft 146 kts 232°
2026-04-25 17:46 35.45000 -84.56094 4161 ft 145 kts 232°
2026-04-25 17:46 35.44391 -84.57056 4123 ft 142 kts 233°
2026-04-25 17:46 35.43799 -84.57999 4099 ft 139 kts 232°
2026-04-25 17:46 35.43200 -84.58926 4062 ft 138 kts 232°
2026-04-25 17:47 35.42603 -84.59840 4051 ft 136 kts 231°
2026-04-25 17:47 35.42019 -84.60738 4065 ft 133 kts 232°
2026-04-25 17:47 35.41454 -84.61633 4036 ft 134 kts 233°
2026-04-25 17:47 35.40867 -84.62537 4017 ft 134 kts 231°
2026-04-25 17:48 35.39697 -84.64312 3980 ft 134 kts 231°
2026-04-25 17:48 35.39113 -84.65198 3963 ft 135 kts 231°
2026-04-25 17:48 35.38521 -84.66093 3921 ft 136 kts 232°
2026-04-25 17:49 35.37970 -84.67013 3937 ft 133 kts 234°
2026-04-25 17:49 35.37396 -84.67956 3771 ft 143 kts 232°
2026-04-25 17:49 35.36777 -84.68922 3708 ft 143 kts 232°
2026-04-25 17:49 35.36152 -84.69882 3589 ft 146 kts 232°
2026-04-25 17:50 35.35532 -84.70863 3511 ft 146 kts 233°
2026-04-25 17:50 35.34926 -84.71844 3448 ft 144 kts 232°
2026-04-25 17:50 35.34310 -84.72810 3378 ft 144 kts 232°
2026-04-25 17:50 35.33704 -84.73788 3298 ft 145 kts 233°
2026-04-25 17:51 35.33096 -84.74758 3235 ft 144 kts 232°
2026-04-25 17:51 35.32476 -84.75728 3164 ft 145 kts 231°
2026-04-25 17:51 35.31851 -84.76659 3227 ft 138 kts 231°
2026-04-25 17:51 35.31244 -84.77585 3200 ft 139 kts 232°
2026-04-25 17:52 35.30649 -84.78515 3161 ft 140 kts 232°
2026-04-25 17:52 35.30449 -84.78831 3159 ft 140 kts 232°
2026-04-25 17:52 35.29474 -84.80392 3118 ft 139 kts 232°
2026-04-25 17:52 35.28855 -84.81296 3131 ft 136 kts 229°
2026-04-25 17:53 35.28192 -84.82114 3107 ft 138 kts 221°
2026-04-25 17:53 35.27443 -84.82884 3034 ft 141 kts 225°
2026-04-25 17:53 35.26876 -84.83865 2980 ft 141 kts 241°
2026-04-25 17:53 35.26387 -84.84830 3064 ft 134 kts 235°
2026-04-25 17:54 35.25819 -84.85753 3045 ft 135 kts 236°
2026-04-25 17:54 35.25297 -84.86685 3069 ft 133 kts 235°
2026-04-25 17:54 35.24755 -84.87603 3072 ft 134 kts 233°
2026-04-25 17:54 35.24193 -84.88500 3101 ft 132 kts 232°
2026-04-25 17:55 35.23637 -84.89389 3107 ft 133 kts 232°
2026-04-25 17:55 35.23052 -84.90264 3103 ft 133 kts 230°
2026-04-25 17:55 35.22468 -84.91183 3036 ft 138 kts 233°
2026-04-25 17:55 35.21894 -84.92094 3059 ft 135 kts 232°
2026-04-25 17:56 35.21323 -84.93002 3063 ft 135 kts 232°
2026-04-25 17:56 35.20745 -84.93891 3101 ft 132 kts 231°
2026-04-25 17:56 35.20183 -84.94784 3112 ft 132 kts 233°
2026-04-25 17:56 35.19635 -84.95679 3117 ft 133 kts 233°
2026-04-25 17:57 35.19066 -84.96570 3111 ft 134 kts 231°
2026-04-25 17:57 35.18491 -84.97453 3119 ft 134 kts 232°
2026-04-25 17:57 35.17902 -84.98366 3029 ft 140 kts 232°
2026-04-25 17:57 35.17701 -84.98678 3047 ft 137 kts 231°
2026-04-25 17:58 35.16727 -85.00079 3111 ft 135 kts 230°
2026-04-25 17:58 35.16137 -85.00980 3115 ft 134 kts 232°
2026-04-25 17:58 35.15567 -85.01870 3158 ft 131 kts 231°
2026-04-25 17:58 35.14991 -85.02749 3085 ft 138 kts 232°
2026-04-25 17:59 35.14409 -85.03652 3116 ft 135 kts 232°
2026-04-25 17:59 35.13827 -85.04552 3098 ft 136 kts 232°
2026-04-25 17:59 35.13413 -85.05193 3127 ft 133 kts 232°
2026-04-25 18:00 35.13130 -85.05647 3137 ft 133 kts 233°
2026-04-25 18:00 35.12604 -85.06575 3164 ft 131 kts 237°
2026-04-25 18:00 35.12071 -85.07484 3167 ft 132 kts 231°
2026-04-25 18:00 35.11446 -85.08325 3105 ft 137 kts 225°
2026-04-25 18:01 35.10798 -85.09171 3094 ft 137 kts 232°
2026-04-25 18:01 35.10228 -85.10095 3054 ft 135 kts 234°
2026-04-25 18:01 35.09688 -85.11031 2925 ft 134 kts 237°
2026-04-25 18:01 35.09199 -85.11938 2941 ft 109 kts 236°
2026-04-25 18:02 35.08771 -85.12466 3098 ft 95 kts 219°
2026-04-25 18:02 35.08254 -85.13026 2953 ft 104 kts 221°
2026-04-25 18:02 35.07741 -85.13646 2793 ft 105 kts 223°
2026-04-25 18:02 35.07249 -85.14246 2738 ft 95 kts 233°
2026-04-25 18:03 35.06905 -85.14893 2700 ft 90 kts 239°
2026-04-25 18:03 35.06592 -85.15594 2580 ft 97 kts 244°
2026-04-25 18:03 35.06315 -85.16368 2436 ft 101 kts 250°
2026-04-25 18:03 35.06100 -85.17174 2237 ft 101 kts 253°
2026-04-25 18:04 35.05856 -85.17967 1975 ft 98 kts 247°
2026-04-25 18:04 35.05532 -85.18669 1729 ft 92 kts 239°
2026-04-25 18:04 35.05177 -85.19302 1434 ft 92 kts 230°
2026-04-25 18:04 35.04684 -85.19808 1076 ft 96 kts 210°
2026-04-25 18:05 35.04066 -85.20099 752 ft 93 kts 195°
2026-04-25 18:05 35.03510 -85.20292 672 ft 71 kts 196°
2026-04-25 18:05 35.03110 -85.20451 671 ft 52 kts 200°
2026-04-25 18:05 35.02799 -85.20546 669 ft 41 kts 199°
2026-04-25 18:06 35.02627 -85.20613 668 ft 14 kts 167°
2026-04-25 18:06 35.02584 -85.20579 668 ft 2 kts 117°
2026-04-25 18:06 35.02578 -85.20557 669 ft 7 kts 104°
2026-04-25 18:06 35.02602 -85.20486 670 ft 1 kts 33°
2026-04-25 18:07 35.02616 -85.20464 670 ft 1 kts 56°
2026-04-25 18:07 35.02599 -85.20439 670 ft 2 kts 101°
2026-04-25 18:07 35.02675 -85.20365 670 ft 17 kts 354°
2026-04-25 18:07 35.02691 -85.20371 670 ft 0 kts 315°